FW2422 Weather Reports


Display with metric or nautical units.
time (UTC)temp
F
wind
direction
speed
MPH
gust
MPH
rain 1hr
in
rain 24hr
in
rain mn
in
humidity
%
barometer
mb
20220705064511 85 126 0.0 5.0 0.00 0.00 0.00 59 1014.0
20220705063008 85 118 2.0 10.0 0.00 0.00 0.00 57 1014.1
20220705061503 86 103 2.0 6.0 0.00 0.00 0.00 54 1014.1
20220705060108 87 120 1.0 5.0 0.00 0.00 0.00 51 1014.3
20220705060003 87 144 1.0 5.0 0.00 0.00 0.00 51 1014.3
20220705054558 87 184 0.0 5.0 0.00 0.00 0.00 49 1014.4
20220705053058 87 101 0.0 4.0 0.00 0.00 0.00 48 1014.3
20220705051555 88 213 0.0 6.0 0.00 0.00 0.00 48 1014.1
20220705050052 88 195 1.0 6.0 0.00 0.00 0.00 47 1014.3
20220705044550 88 221 0.0 5.0 0.00 0.00 0.00 46 1014.3
20220705043051 89 184 0.0 6.0 0.00 0.00 0.00 46 1014.4
20220705041551 89 126 1.0 4.0 0.00 0.00 0.00 46 1014.4
20220705040049 89 102 0.0 5.0 0.00 0.00 0.00 46 1014.4
20220705034549 89 84 0.0 4.0 0.00 0.00 0.00 45 1014.3
20220705033052 90 98 0.0 5.0 0.00 0.00 0.00 44 1014.2
20220705031548 90 252 0.0 5.0 0.00 0.00 0.00 44 1013.8
20220705030048 90 219 0.0 4.0 0.00 0.00 0.00 44 1013.6
20220705024547 90 148 0.0 5.0 0.00 0.00 0.00 43 1013.7
20220705023047 91 176 0.0 2.0 0.00 0.00 0.00 43 1013.5
20220705021549 92 109 0.0 4.0 0.00 0.00 0.00 42 1013.4
20220705020045 92 141 0.0 4.0 0.00 0.00 0.00 41 1013.1
20220705014546 93 41 1.0 6.0 0.00 0.00 0.00 40 1013.0
20220705013045 94 89 0.0 10.0 0.00 0.00 0.00 39 1012.8
20220705011544 95 165 0.0 7.0 0.00 0.00 0.00 38 1012.8
20220705010044 95 156 0.0 6.0 0.00 0.00 0.00 37 1012.6
20220705004545 96 76 2.0 7.0 0.00 0.00 0.00 36 1012.6
20220705003043 97 84 1.0 10.0 0.00 0.00 0.00 35 1012.4
20220705001542 97 100 1.0 12.0 0.00 0.00 0.00 33 1012.5
20220705000047 98 280 2.0 7.0 0.00 0.00 0.00 32 1012.6
20220704234547 99 206 3.0 9.0 0.00 0.00 0.00 32 1012.6
20220704233037 100 198 1.0 8.0 0.00 0.00 0.00 31 1012.6
20220704231537 100 115 1.0 6.0 0.00 0.00 0.00 31 1012.7
20220704230035 101 191 3.0 9.0 0.00 0.00 0.00 30 1012.9
20220704224534 100 172 2.0 8.0 0.00 0.00 0.00 32 1012.9
20220704223033 101 146 3.0 11.0 0.00 0.00 0.00 31 1013.1
20220704221532 101 176 2.0 10.0 0.00 0.00 0.00 32 1013.1
20220704220041 100 83 1.0 10.0 0.00 0.00 0.00 33 1013.2
20220704214528 101 162 3.0 9.0 0.00 0.00 0.00 33 1013.4
20220704213027 101 231 3.0 8.0 0.00 0.00 0.00 33 1013.5
20220704211529 100 49 2.0 11.0 0.00 0.00 0.00 33 1013.6
20220704210037 100 200 1.0 9.0 0.00 0.00 0.00 35 1013.9
20220704204522 100 153 4.0 9.0 0.00 0.00 0.00 34 1014.1
20220704203023 100 218 2.0 9.0 0.00 0.00 0.00 35 1014.2
20220704201527 100 78 2.0 11.0 0.00 0.00 0.00 36 1014.4
20220704200027 100 126 3.0 10.0 0.00 0.00 0.00 37 1014.7
20220704194520 99 199 2.0 11.0 0.00 0.00 0.00 37 1014.8
20220704193016 98 96 3.0 9.0 0.00 0.00 0.00 39 1014.9
20220704191526 98 165 5.0 12.0 0.00 0.00 0.00 38 1015.3
20220704190013 97 189 3.0 10.0 0.00 0.00 0.00 39 1015.3
20220704184515 97 181 1.0 7.0 0.00 0.00 0.00 40 1015.4
20220704183010 97 153 1.0 11.0 0.00 0.00 0.00 40 1015.5
20220704181515 97 159 0.0 9.0 0.00 0.00 0.00 42 1015.7
20220704180007 96 184 2.0 7.0 0.00 0.00 0.00 43 1015.8
20220704174504 96 199 3.0 7.0 0.00 0.00 0.00 42 1016.0
20220704173005 96 133 2.0 5.0 0.00 0.00 0.00 43 1016.0
20220704171559 94 219 1.0 8.0 0.00 0.00 0.00 45 1016.1
20220704170059 94 150 3.0 9.0 0.00 0.00 0.00 46 1016.2
20220704164557 94 170 2.0 8.0 0.00 0.00 0.00 46 1016.3
20220704163056 93 243 1.0 6.0 0.00 0.00 0.00 48 1016.5
20220704161556 92 182 2.0 7.0 0.00 0.00 0.00 49 1016.7
20220704160049 91 79 0.0 6.0 0.00 0.00 0.00 52 1016.5
20220704154544 90 198 2.0 9.0 0.00 0.00 0.00 53 1016.6
20220704153042 91 203 1.0 8.0 0.00 0.00 0.00 53 1016.6
20220704151549 90 184 1.0 7.0 0.00 0.00 0.00 56 1016.8
20220704150042 88 167 1.0 8.0 0.00 0.00 0.00 57 1016.9
20220704144545 88 171 2.0 7.0 0.00 0.00 0.00 60 1017.0
20220704143035 87 139 1.0 6.0 0.00 0.00 0.00 61 1017.0
20220704141532 86 262 2.0 8.0 0.00 0.00 0.00 65 1016.7
20220704140031 85 191 1.0 9.0 0.00 0.00 0.00 66 1016.8
20220704134536 85 288 0.0 8.0 0.00 0.00 0.00 67 1016.6
20220704133029 84 207 0.0 6.0 0.00 0.00 0.00 68 1016.6
20220704131528 84 199 1.0 4.0 0.00 0.00 0.00 68 1016.4
20220704130024 83 191 0.0 5.0 0.00 0.00 0.00 69 1016.4
20220704124524 82 153 2.0 5.0 0.00 0.00 0.00 71 1016.2
20220704123021 81 180 0.0 3.0 0.00 0.00 0.00 72 1016.1
20220704121519 79 91 0.0 3.0 0.00 0.00 0.00 73 1015.9
20220704120018 79 175 0.0 1.0 0.00 0.00 0.00 73 1015.7
20220704114516 79 186 0.0 2.0 0.00 0.00 0.00 72 1015.7
20220704113022 80 192 0.0 2.0 0.00 0.00 0.00 71 1015.5
20220704111513 80 150 0.0 0.0 0.00 0.00 0.00 70 1015.3
20220704110012 80 181 0.0 1.0 0.00 0.00 0.00 69 1015.4
20220704104608 81 136 0.0 1.0 0.00 0.00 0.00 68 1015.3
20220704103004 81 169 0.0 3.0 0.00 0.00 0.00 66 1015.0
20220704101503 82 108 0.0 4.0 0.00 0.00 0.00 65 1014.9
20220704100100 82 177 1.0 5.0 0.00 0.00 0.00 65 1014.9
20220704094559 82 186 1.0 5.0 0.00 0.00 0.00 64 1014.9
20220704093058 83 181 0.0 5.0 0.00 0.00 0.00 63 1014.8
20220704091555 83 107 0.0 6.0 0.00 0.00 0.00 62 1014.8
20220704090053 83 81 0.0 6.0 0.00 0.00 0.00 62 1014.7
20220704084553 84 214 0.0 7.0 0.00 0.00 0.00 61 1014.8
20220704083049 84 191 0.0 7.0 0.00 0.00 0.00 61 1014.6
20220704081555 84 173 1.0 7.0 0.00 0.00 0.00 62 1014.5
20220704080059 85 158 3.0 10.0 0.00 0.00 0.00 62 1014.5
20220704074547 85 177 2.0 8.0 0.00 0.00 0.00 63 1014.5
20220704073050 85 190 1.0 5.0 0.00 0.00 0.00 63 1014.6
20220704071605 85 110 1.0 7.0 0.00 0.00 0.00 63 1014.5
20220704070043 85 195 1.0 5.0 0.00 0.00 0.00 62 1014.5